Wind_Speed
16 19 20 21 21 21 22 23 22 16 15 11 14 17 19 18 22 26 33 37 39 38 38 37 37 37 39 39 39 38 37 37 37 37 37 38 39 39 40 40 40 41 44 45
11 13 14 15 16 17 17 16 14 10 6 7 10 11 12 15 20 25 30 33 34 34 34 34 34 34 35 35 35 34 34 35 35 36 37 38 39 39 38 39 40 42 44 47
6 9 11 13 14 14 13 11 9 6 3 2 4 8 14 18 22 25 27 30 31 30 30 30 31 31 31 31 32 31 32 33 34 36 37 36 36 36 36 37 40 43 46 49
6 8 12 12 12 11 11 10 8 8 8 9 11 15 17 20 23 23 25 26 27 27 27 27 27 27 28 28 28 29 31 32 33 33 32 32 32 33 35 38 42 45 49 51
7 9 10 11 12 12 11 10 10 11 12 14 15 17 20 21 21 22 22 22 23 23 23 23 23 23 23 25 26 27 28 28 28 28 29 30 32 34 37 41 44 47 50 52
6 7 9 10 10 11 12 12 12 12 12 13 13 14 16 17 19 21 21 20 20 21 21 21 21 21 22 23 23 24 24 25 26 27 28 30 33 36 40 43 46 48 50 53
4 4 5 6 8 9 11 11 11 10 9 10 11 12 13 13 14 15 16 17 18 18 18 18 18 19 19 19 20 21 22 23 25 27 29 32 35 39 41 43 46 48 51 54
3 2 0 2 4 5 7 8 9 8 8 8 8 8 9 10 10 11 12 13 13 13 14 14 15 15 16 16 17 19 20 23 25 28 31 34 37 39 41 44 46 49 52 54
7 5 3 2 2 2 3 4 4 5 4 4 3 3 4 5 6 7 8 8 9 9 10 11 12 13 14 15 17 19 21 24 27 29 32 35 37 39 42 44 47 49 51 52
11 9 8 6 5 5 5 4 4 3 3 2 1 1 1 2 4 5 6 7 8 9 10 10 11 13 14 16 17 19 22 25 28 30 33 35 37 40 42 45 47 48 49 51
15 13 12 10 9 8 7 6 6 5 5 4 3 3 3 4 5 6 6 7 8 9 9 10 11 12 14 16 18 21 24 27 30 32 34 36 39 41 43 45 45 46 49 53
17 15 14 13 12 11 10 9 8 7 6 5 4 4 4 5 5 6 7 7 8 9 9 10 11 13 16 19 22 25 27 29 31 33 35 37 40 41 42 43 45 48 52 57
17 15 15 14 14 13 12 11 10 8 7 7 7 6 6 6 6 6 7 7 7 8 10 12 14 16 20 23 26 28 29 30 32 34 36 38 39 39 41 45 49 53 58 63
16 15 14 14 14 14 13 12 11 10 9 9 8 7 6 6 6 6 6 7 8 9 12 15 18 21 23 26 27 28 29 31 33 35 36 36 37 40 44 48 53 58 63 67
16 15 14 14 14 15 14 13 12 11 11 10 9 8 7 6 5 6 6 8 10 13 16 19 22 23 25 26 27 28 30 33 34 34 35 37 40 44 48 52 57 62 66 71
17 16 16 16 16 16 16 15 14 13 12 11 10 8 7 6 6 7 9 12 15 18 20 22 23 23 24 26 28 30 32 32 32 34 37 41 44 48 52 57 62 66 71 76
17 17 17 17 16 15 15 14 14 13 12 10 9 9 8 9 10 12 14 17 19 20 21 21 22 23 25 27 29 30 30 31 33 37 41 45 48 52 57 61 66 71 77 81
15 15 16 16 16 14 14 13 12 12 11 10 10 10 11 12 14 16 18 19 20 20 21 21 22 24 26 28 28 29 30 33 37 41 45 49 52 57 61 66 71 77 81 81
14 14 14 14 14 14 14 13 13 12 11 11 12 13 14 16 17 18 20 20 20 20 20 22 23 25 26 27 27 30 33 37 41 45 49 52 57 61 66 72 77 82 81 73
14 13 13 14 14 14 14 13 13 12 12 13 14 15 17 18 19 20 20 19 19 20 21 23 24 25 25 27 29 32 36 40 44 48 52 57 62 67 72 78 82 81 73 60
15 15 15 15 15 15 14 14 14 14 15 16 17 18 19 19 20 20 19 19 20 21 22 23 23 24 26 29 32 36 40 44 48 52 57 62 67 73 79 83 81 72 59 45
17 18 18 18 18 18 17 17 17 17 18 19 19 19 19 19 19 19 19 19 20 21 22 22 23 26 28 32 35 39 43 48 52 57 62 67 73 79 82 80 71 58 43 27
19 20 20 20 20 20 20 20 20 20 20 20 20 20 19 19 19 19 19 19 20 21 21 23 25 28 31 35 39 43 47 52 57 61 67 73 79 81 78 68 54 39 23 10
20 20 21 21 21 21 20 20 20 20 20 20 20 19 19 19 19 19 19 19 20 20 22 24 27 31 34 38 42 46 51 56 60 66 72 77 79 75 64 50 35 20 7 4
20 21 21 21 21 21 21 21 21 20 20 20 19 19 19 19 19 19 19 19 20 21 23 26 30 33 37 41 45 50 54 59 64 70 75 77 71 60 45 30 16 6 7 11
22 22 22 23 23 22 22 22 21 21 20 20 19 20 20 20 20 20 20 20 21 23 25 29 32 36 40 44 48 52 57 62 67 72 74 68 56 41 26 13 7 9 11 11
25 25 24 24 23 23 23 23 22 21 21 21 21 21 21 21 21 20 20 20 22 24 27 31 35 39 42 46 50 54 59 64 68 70 65 53 39 24 12 7 9 11 11 9
Wind_Direction
298 303 311 317 319 316 312 309 306 303 288 262 249 239 229 214 202 201 196 195 197 201 205 207 210 215 219 223 227 232 238 245 252 259 264 268 271 273 277 280 282 284 287 288
309 317 329 332 331 331 330 324 320 315 294 252 234 217 198 184 183 181 182 185 187 192 197 201 206 212 217 223 228 235 242 250 257 262 265 268 271 274 277 279 282 285 287 290
336 348 356 355 346 343 347 347 346 353 38 126 156 162 154 156 158 163 169 173 177 183 189 196 203 210 217 224 231 239 246 253 258 261 265 268 271 273 276 280 283 286 290 293
33 30 29 16 9 9 16 24 43 61 79 105 126 136 141 141 145 152 157 165 172 179 188 196 204 212 220 229 237 244 250 254 259 262 264 266 270 274 278 282 286 289 293 297
59 54 50 40 33 33 40 52 68 75 87 101 110 118 130 141 147 150 158 166 176 184 192 200 208 216 224 232 238 244 249 252 256 259 263 268 272 276 281 286 290 293 297 299
83 77 68 58 51 50 58 68 75 81 87 96 107 118 128 138 148 156 164 172 181 189 196 204 211 218 225 232 237 242 247 252 257 261 266 271 277 282 287 291 294 296 298 300
124 96 77 67 62 60 65 67 70 76 82 92 101 107 120 133 148 160 169 178 185 192 197 203 208 215 221 229 236 243 250 256 262 268 275 281 285 289 292 294 296 298 300 301
197 186 69 62 57 49 52 56 58 63 70 85 93 106 120 129 140 155 164 170 177 185 192 199 208 216 225 234 243 252 260 268 275 281 285 288 291 293 295 296 298 300 302 304
233 238 252 265 305 348 7 17 31 46 55 64 77 102 123 136 147 160 171 178 186 195 202 211 220 230 240 250 260 269 277 282 286 289 291 292 294 295 297 299 301 303 305 307
239 242 248 256 270 285 300 312 322 338 346 346 338 274 237 223 216 209 211 214 218 223 229 236 246 256 264 271 279 284 287 290 292 293 294 295 297 299 300 302 304 306 308 310
242 244 246 250 257 265 275 282 289 295 296 296 291 276 265 257 241 235 234 235 239 245 252 261 269 275 281 287 290 292 293 294 295 296 297 298 300 302 304 305 307 309 310 311
245 245 244 244 247 253 259 264 271 277 278 275 276 280 273 265 256 250 248 251 256 261 267 273 280 285 290 293 295 296 297 298 298 299 301 302 304 305 307 308 309 310 311 312
246 245 243 241 244 250 253 255 258 263 266 265 268 268 268 258 252 251 251 254 262 271 279 286 291 294 297 298 300 300 300 301 302 303 304 305 307 308 310 311 312 313 314 315
244 242 241 239 241 244 246 248 252 257 259 259 262 261 263 257 250 245 249 260 276 285 291 295 298 300 301 301 302 302 303 304 305 306 307 308 310 311 312 313 314 315 316 318
239 239 238 236 237 240 242 246 252 256 253 255 257 259 256 251 249 253 266 281 290 296 298 301 302 303 303 303 304 305 305 306 307 308 309 311 312 313 314 315 316 317 318 319
236 238 240 239 240 242 246 249 251 251 249 249 251 247 242 246 258 274 287 293 298 301 303 304 304 304 304 305 306 307 308 309 310 310 312 313 314 315 316 317 317 318 319 320
237 238 240 240 239 241 245 247 247 243 237 238 240 240 249 264 277 286 293 296 300 303 305 305 305 305 306 307 308 309 310 311 312 313 315 316 317 317 318 318 319 320 320 321
233 237 237 236 237 238 236 235 233 230 232 238 245 254 267 279 288 294 298 301 303 305 306 306 307 308 309 310 311 312 313 314 315 317 318 318 319 319 320 320 320 321 321 322
229 229 227 224 222 224 225 226 229 231 237 246 258 270 280 287 292 296 300 303 305 307 307 308 309 310 311 312 313 315 316 317 318 319 319 320 320 321 321 321 321 322 322 321
223 222 220 218 218 218 220 225 231 239 249 261 272 281 286 290 294 297 300 303 305 307 308 310 311 312 313 315 316 317 317 318 319 320 321 322 322 322 322 322 322 322 322 321
226 226 223 223 223 225 231 238 245 254 263 272 279 284 288 291 294 297 299 302 304 307 309 311 312 314 315 316 317 318 319 320 321 322 323 323 324 324 324 323 323 322 322 320
232 233 232 232 233 238 243 250 257 264 271 276 280 283 287 290 292 295 297 301 304 307 309 311 313 315 316 317 318 319 321 322 323 324 325 325 325 325 324 324 323 323 322 320
237 238 240 241 244 247 252 257 263 268 273 277 280 282 285 288 291 293 297 301 304 307 309 311 314 316 317 319 320 321 323 325 326 326 327 327 327 326 325 325 325 325 325 323
241 242 243 245 248 252 255 259 263 268 272 276 279 281 284 286 289 293 297 301 303 306 309 312 315 317 319 320 322 324 326 327 328 329 329 328 328 327 327 327 328 332 343 117
246 246 246 247 249 251 254 258 263 267 271 275 277 279 281 284 289 294 297 300 303 306 310 313 316 319 320 322 324 326 328 329 330 331 330 330 330 330 331 334 341 20 109 125
248 248 249 249 251 253 256 258 262 265 269 272 275 277 281 284 289 293 296 299 303 307 311 315 318 320 323 325 327 329 330 331 332 332 332 332 333 335 340 355 50 105 117 122
248 248 249 250 252 254 256 258 261 263 266 270 273 276 280 283 287 290 294 299 304 308 312 315 319 322 324 327 329 330 332 333 333 334 335 336 339 345 4 55 99 112 116 116
Height
5604 5599 5594 5588 5581 5574 5566 5559 5552 5547 5542 5540 5537 5536 5537 5539 5544 5549 5558 5568 5579 5591 5601 5610 5618 5625 5631 5637 5642 5647 5651 5654 5656 5657 5657 5657 5656 5654 5652 5649 5646 5643 5640 5636
5600 5596 5590 5585 5579 5572 5565 5558 5551 5545 5541 5538 5536 5535 5537 5540 5544 5550 5558 5568 5579 5589 5598 5607 5615 5622 5628 5633 5638 5642 5646 5648 5650 5650 5650 5649 5648 5646 5643 5640 5637 5634 5630 5625
5598 5593 5589 5584 5578 5572 5565 5559 5553 5548 5545 5541 5540 5539 5540 5543 5548 5555 5563 5572 5581 5590 5598 5606 5613 5619 5624 5629 5634 5637 5640 5642 5642 5642 5642 5641 5639 5637 5634 5631 5629 5625 5620 5615
5596 5593 5588 5586 5578 5573 5568 5563 5558 5554 5551 5548 5547 5546 5548 5552 5557 5563 5570 5577 5585 5592 5599 5606 5611 5617 5622 5626 5629 5632 5634 5635 5635 5635 5633 5632 5630 5628 5626 5623 5619 5615 5610 5604
5594 5591 5589 5586 5581 5576 5572 5568 5565 5562 5559 5557 5556 5557 5558 5562 5566 5571 5577 5583 5589 5595 5600 5606 5611 5615 5619 5622 5624 5626 5627 5628 5627 5627 5626 5624 5623 5621 5618 5614 5610 5605 5599 5593
5594 5592 5590 5589 5584 5580 5578 5574 5571 5569 5568 5567 5566 5567 5569 5570 5573 5577 5582 5586 5591 5595 5600 5604 5608 5611 5614 5617 5619 5620 5621 5621 5621 5620 5619 5617 5615 5612 5609 5605 5600 5594 5589 5582
5594 5593 5592 5591 5588 5586 5584 5582 5578 5576 5575 5575 5574 5575 5576 5577 5580 5582 5585 5589 5592 5596 5599 5602 5605 5608 5610 5612 5614 5615 5615 5615 5615 5614 5612 5610 5607 5604 5599 5595 5590 5584 5578 5571
5594 5594 5595 5592 5590 5589 5587 5585 5583 5582 5581 5580 5581 5581 5582 5583 5584 5586 5588 5591 5593 5596 5598 5601 5603 5606 5607 5609 5610 5610 5610 5610 5609 5607 5605 5602 5598 5594 5590 5585 5579 5573 5566 5558
5594 5595 5593 5592 5591 5590 5589 5588 5587 5586 5585 5585 5585 5586 5586 5587 5588 5589 5591 5593 5594 5596 5598 5600 5602 5604 5605 5606 5606 5606 5605 5604 5602 5600 5597 5594 5590 5585 5580 5575 5569 5562 5555 5547
5591 5592 5592 5592 5591 5591 5590 5589 5588 5588 5588 5588 5588 5588 5588 5589 5590 5591 5592 5593 5595 5596 5598 5599 5600 5601 5602 5602 5601 5600 5599 5597 5595 5592 5589 5585 5580 5576 5570 5564 5558 5551 5544 5536
5588 5589 5590 5590 5590 5590 5590 5589 5588 5588 5588 5588 5588 5588 5589 5589 5590 5591 5591 5593 5594 5595 5596 5597 5597 5598 5598 5597 5596 5595 5593 5591 5588 5584 5580 5576 5571 5566 5560 5554 5547 5541 5533 5525
5584 5586 5587 5588 5588 5589 5589 5588 5588 5588 5588 5588 5588 5588 5588 5588 5589 5590 5590 5591 5592 5593 5594 5594 5594 5594 5594 5593 5591 5589 5586 5583 5579 5576 5571 5567 5562 5556 5550 5544 5537 5529 5521 5511
5580 5581 5583 5584 5586 5586 5587 5587 5587 5587 5587 5587 5586 5586 5586 5587 5587 5588 5589 5590 5591 5591 5592 5592 5591 5590 5589 5587 5585 5582 5579 5575 5571 5567 5563 5558 5552 5546 5540 5533 5525 5516 5507 5496
5576 5578 5579 5581 5582 5583 5584 5585 5585 5585 5585 5585 5585 5585 5585 5585 5586 5587 5588 5588 5589 5589 5589 5588 5587 5585 5583 5581 5578 5574 5571 5567 5564 5559 5554 5549 5543 5537 5530 5522 5513 5502 5492 5481
5572 5574 5576 5577 5579 5580 5581 5582 5583 5583 5583 5583 5583 5584 5584 5584 5585 5585 5586 5586 5586 5586 5585 5583 5581 5579 5576 5573 5570 5567 5564 5560 5555 5551 5546 5540 5534 5527 5519 5510 5501 5491 5479 5467
5568 5570 5571 5573 5574 5576 5577 5578 5579 5580 5580 5581 5581 5582 5582 5583 5583 5584 5584 5583 5582 5581 5579 5577 5575 5572 5569 5566 5563 5560 5556 5552 5547 5542 5537 5531 5524 5516 5507 5498 5487 5476 5464 5452
5563 5565 5567 5569 5571 5572 5573 5575 5576 5576 5577 5578 5579 5579 5580 5581 5581 5580 5580 5579 5577 5576 5573 5571 5569 5566 5563 5560 5556 5552 5548 5544 5539 5534 5528 5521 5513 5505 5495 5484 5473 5460 5447 5433
5559 5561 5563 5565 5567 5568 5570 5571 5572 5573 5575 5575 5576 5577 5577 5577 5577 5576 5575 5573 5571 5570 5567 5565 5562 5560 5556 5553 5549 5545 5541 5536 5531 5525 5518 5511 5502 5492 5482 5470 5457 5444 5429 5414
5556 5558 5560 5561 5563 5565 5567 5568 5569 5571 5572 5572 5573 5573 5573 5573 5572 5571 5569 5568 5566 5564 5562 5559 5556 5553 5550 5546 5542 5538 5534 5528 5523 5516 5508 5499 5489 5479 5467 5454 5440 5425 5410 5396
5553 5555 5556 5558 5560 5562 5563 5565 5566 5567 5568 5568 5569 5569 5568 5567 5566 5565 5563 5562 5560 5558 5556 5553 5550 5547 5543 5540 5536 5531 5526 5520 5513 5505 5496 5486 5475 5463 5450 5436 5421 5405 5391 5380
5550 5552 5553 5555 5557 5558 5560 5561 5562 5563 5563 5564 5564 5563 5563 5561 5560 5559 5558 5556 5554 5552 5550 5547 5544 5541 5537 5533 5529 5524 5518 5511 5503 5494 5484 5473 5460 5447 5432 5417 5401 5387 5375 5367
5546 5548 5549 5551 5553 5554 5555 5556 5557 5558 5558 5558 5558 5557 5557 5556 5555 5554 5552 5551 5548 5546 5543 5541 5538 5534 5531 5527 5522 5516 5509 5501 5492 5482 5471 5458 5445 5430 5414 5398 5383 5372 5363 5358
5541 5543 5544 5546 5547 5549 5550 5551 5552 5552 5552 5552 5552 5552 5551 5550 5549 5548 5546 5544 5542 5540 5537 5535 5532 5528 5524 5519 5514 5507 5500 5491 5481 5470 5457 5443 5428 5412 5396 5381 5370 5361 5356 5354
5536 5537 5539 5540 5542 5543 5544 5545 5545 5546 5546 5546 5546 5545 5545 5544 5543 5542 5540 5538 5536 5534 5531 5529 5525 5521 5517 5512 5505 5498 5489 5480 5469 5456 5443 5428 5412 5395 5381 5370 5361 5356 5354 5354
5530 5531 5533 5534 5535 5536 5537 5538 5539 5540 5540 5540 5540 5539 5539 5538 5537 5535 5534 5532 5530 5528 5525 5522 5519 5514 5509 5503 5496 5488 5479 5468 5457 5444 5429 5413 5397 5383 5372 5364 5359 5357 5357 5358
5523 5525 5526 5527 5528 5530 5531 5532 5532 5533 5533 5533 5533 5533 5532 5531 5530 5529 5527 5526 5524 5522 5519 5516 5512 5507 5501 5494 5487 5478 5468 5457 5445 5431 5416 5401 5387 5376 5369 5364 5362 5361 5362 5364
5515 5517 5518 5520 5521 5522 5524 5525 5525 5526 5526 5527 5526 5526 5525 5525 5524 5522 5521 5519 5517 5515 5512 5509 5504 5499 5493 5486 5478 5468 5458 5447 5434 5420 5405 5393 5382 5375 5371 5368 5367 5368 5368 5369